User: anonymous   Login
Location: Unspecified
(0.0000°N, 0.0000°E)
Time: 23:14:00
(UTC+00:00)
Language:

PAKSAT 1R - Orbit

View from above orbital plane
View from above orbital plane
View from above satellite
View from above satellite

Ground track
Ground track

The orbit data is extracted from the following two-line orbital elements,

1 37779U 11042A   14327.16757391  .00000161  00000-0  00000+0 0  6946
2 37779 000.0400 108.9407 0004264 141.0504 270.4159 01.00269734 12046
Epoch (UTC): 23 November 2014 04:01:18
Eccentricity: 0.0004264
inclination: 0.0400°
perigee height: 35769 km
apogee height: 35805 km
right ascension of ascending node: 108.9407°
argument of perigee: 141.0504°
revolutions per day: 1.00269734
mean anomaly at epoch: 270.4159°
orbit number at epoch: 1204

The dashed part of the orbit path shows where the satellite is in the earth's shadow,  

DLR